| time (UTC) | temp F | wind direction | speed MPH | gust MPH | rain 1hr in | rain 24hr in | rain mn in | humidity % | barometer mb |
| 20260902083532 | 59 | 261 | 1.0 | 8.0 | 0.00 | 0.00 | 0.00 | 63 | 1010.3 |
| 20260902083029 | 60 | 245 | 0.0 | 8.0 | 0.00 | 0.00 | 0.00 | 62 | 1010.2 |
| 20260902082531 | 60 | 275 | 0.0 | 6.0 | 0.00 | 0.00 | 0.00 | 62 | 1010.2 |
| 20260902082027 | 60 | 275 | 0.0 | 8.0 | 0.00 | 0.00 | 0.00 | 62 | 1010.1 |
| 20260902081528 | 60 | 252 | 1.0 | 9.0 | 0.00 | 0.00 | 0.00 | 62 | 1010.2 |
| 20260902081027 | 60 | 253 | 3.0 | 9.0 | 0.00 | 0.00 | 0.00 | 63 | 1010.3 |
| 20260902080527 | 61 | 262 | 0.0 | 13.0 | 0.00 | 0.00 | 0.00 | 63 | 1010.3 |
| 20260902080027 | 61 | 191 | 3.0 | 13.0 | 0.00 | 0.00 | 0.00 | 63 | 1010.3 |
| 20260902075526 | 60 | 264 | 6.0 | 13.0 | 0.00 | 0.00 | 0.00 | 64 | 1010.3 |
| 20260902075025 | 61 | 247 | 2.0 | 8.0 | 0.00 | 0.00 | 0.00 | 61 | 1010.4 |
| 20260902074523 | 61 | 276 | 3.0 | 9.0 | 0.00 | 0.00 | 0.00 | 60 | 1010.3 |
| 20260902074023 | 61 | 256 | 2.0 | 9.0 | 0.00 | 0.00 | 0.00 | 60 | 1010.3 |
| 20260902073521 | 61 | 279 | 0.0 | 15.0 | 0.00 | 0.00 | 0.00 | 59 | 1010.4 |
| 20260902073021 | 62 | 244 | 2.0 | 15.0 | 0.00 | 0.00 | 0.00 | 58 | 1010.4 |
| 20260902072520 | 62 | 267 | 1.0 | 7.0 | 0.00 | 0.00 | 0.00 | 59 | 1010.5 |
| 20260902072019 | 62 | 253 | 0.0 | 7.0 | 0.00 | 0.00 | 0.00 | 59 | 1010.5 |
| 20260902071531 | 62 | 229 | 2.0 | 15.0 | 0.00 | 0.00 | 0.00 | 59 | 1010.5 |
| 20260902071021 | 62 | 258 | 5.0 | 15.0 | 0.00 | 0.00 | 0.00 | 60 | 1010.6 |
| 20260902070517 | 62 | 191 | 0.0 | 13.0 | 0.00 | 0.00 | 0.00 | 59 | 1010.6 |
| 20260902070017 | 62 | 191 | 2.0 | 13.0 | 0.00 | 0.00 | 0.00 | 58 | 1010.7 |
| 20260902065517 | 63 | 244 | 4.0 | 13.0 | 0.00 | 0.00 | 0.00 | 58 | 1010.8 |
| 20260902065017 | 63 | 265 | 2.0 | 10.0 | 0.00 | 0.00 | 0.00 | 57 | 1010.8 |
| 20260902064523 | 63 | 191 | 2.0 | 10.0 | 0.00 | 0.00 | 0.00 | 57 | 1010.8 |
| 20260902064016 | 63 | 191 | 1.0 | 10.0 | 0.00 | 0.00 | 0.00 | 57 | 1010.9 |
| 20260902063516 | 63 | 265 | 1.0 | 12.0 | 0.00 | 0.00 | 0.00 | 56 | 1011.0 |
| 20260902063028 | 63 | 279 | 3.0 | 12.0 | 0.00 | 0.00 | 0.00 | 56 | 1010.9 |
| 20260902062516 | 63 | 191 | 1.0 | 9.0 | 0.00 | 0.00 | 0.00 | 57 | 1010.9 |
| 20260902062018 | 63 | 271 | 2.0 | 13.0 | 0.00 | 0.00 | 0.00 | 57 | 1010.9 |
| 20260902061516 | 63 | 191 | 1.0 | 13.0 | 0.00 | 0.00 | 0.00 | 56 | 1011.0 |
| 20260902061016 | 63 | 244 | 0.0 | 13.0 | 0.00 | 0.00 | 0.00 | 56 | 1011.1 |
| 20260902060515 | 63 | 191 | 1.0 | 13.0 | 0.00 | 0.00 | 0.00 | 57 | 1011.0 |
| 20260902060018 | 64 | 265 | 1.0 | 14.0 | 0.00 | 0.00 | 0.00 | 56 | 1010.9 |
| 20260902055515 | 64 | 327 | 3.0 | 14.0 | 0.00 | 0.00 | 0.00 | 55 | 1010.9 |
| 20260902055016 | 64 | 191 | 0.0 | 8.0 | 0.00 | 0.00 | 0.00 | 56 | 1010.9 |
| 20260902054520 | 64 | 262 | 0.0 | 7.0 | 0.00 | 0.00 | 0.00 | 56 | 1011.0 |
| 20260902054015 | 64 | 191 | 1.0 | 10.0 | 0.00 | 0.00 | 0.00 | 56 | 1011.0 |
| 20260902053514 | 64 | 246 | 0.0 | 10.0 | 0.00 | 0.00 | 0.00 | 55 | 1011.0 |
| 20260902053021 | 64 | 312 | 0.0 | 9.0 | 0.00 | 0.00 | 0.00 | 55 | 1011.1 |
| 20260902052516 | 64 | 191 | 1.0 | 10.0 | 0.00 | 0.00 | 0.00 | 55 | 1011.1 |
| 20260902052012 | 64 | 191 | 0.0 | 10.0 | 0.00 | 0.00 | 0.00 | 55 | 1010.9 |
| 20260902051512 | 64 | 191 | 1.0 | 9.0 | 0.00 | 0.00 | 0.00 | 55 | 1010.9 |
| 20260902051012 | 64 | 265 | 3.0 | 9.0 | 0.00 | 0.00 | 0.00 | 55 | 1010.9 |
| 20260902050512 | 64 | 323 | 0.0 | 7.0 | 0.00 | 0.00 | 0.00 | 54 | 1010.7 |
| 20260902050014 | 64 | 191 | 1.0 | 7.0 | 0.00 | 0.00 | 0.00 | 55 | 1010.7 |
| 20260902045510 | 64 | 341 | 1.0 | 8.0 | 0.00 | 0.00 | 0.00 | 53 | 1010.7 |
| 20260902045012 | 64 | 255 | 3.0 | 8.0 | 0.00 | 0.00 | 0.00 | 53 | 1010.6 |
| 20260902044510 | 64 | 191 | 0.0 | 7.0 | 0.00 | 0.00 | 0.00 | 53 | 1010.6 |
| 20260902044009 | 64 | 333 | 1.0 | 8.0 | 0.00 | 0.00 | 0.00 | 52 | 1010.4 |
| 20260902043508 | 64 | 191 | 1.0 | 10.0 | 0.00 | 0.00 | 0.00 | 52 | 1010.3 |
| 20260902043014 | 65 | 276 | 3.0 | 10.0 | 0.00 | 0.00 | 0.00 | 52 | 1010.4 |
| 20260902042508 | 65 | 260 | 2.0 | 10.0 | 0.00 | 0.00 | 0.00 | 52 | 1010.3 |
| 20260902042008 | 65 | 250 | 1.0 | 5.0 | 0.00 | 0.00 | 0.00 | 51 | 1010.2 |
| 20260902041507 | 65 | 191 | 0.0 | 4.0 | 0.00 | 0.00 | 0.00 | 51 | 1010.1 |
| 20260902041006 | 65 | 277 | 0.0 | 18.0 | 0.00 | 0.00 | 0.00 | 50 | 1010.2 |
| 20260902040507 | 65 | 232 | 6.0 | 18.0 | 0.00 | 0.00 | 0.00 | 50 | 1010.1 |
| 20260902040006 | 65 | 260 | 0.0 | 8.0 | 0.00 | 0.00 | 0.00 | 51 | 1010.1 |
| 20260902035506 | 65 | 326 | 2.0 | 8.0 | 0.00 | 0.00 | 0.00 | 50 | 1010.1 |
| 20260902035006 | 65 | 191 | 1.0 | 6.0 | 0.00 | 0.00 | 0.00 | 51 | 1010.0 |
| 20260902034505 | 65 | 337 | 1.0 | 12.0 | 0.00 | 0.00 | 0.00 | 49 | 1009.9 |
| 20260902034005 | 65 | 191 | 4.0 | 12.0 | 0.00 | 0.00 | 0.00 | 49 | 1009.8 |
| 20260902033505 | 65 | 240 | 3.0 | 9.0 | 0.00 | 0.00 | 0.00 | 50 | 1009.8 |
| 20260902033010 | 65 | 191 | 2.0 | 8.0 | 0.00 | 0.00 | 0.00 | 50 | 1009.6 |
| 20260902032507 | 65 | 356 | 1.0 | 8.0 | 0.00 | 0.00 | 0.00 | 51 | 1009.7 |
| 20260902032005 | 65 | 191 | 2.0 | 8.0 | 0.00 | 0.00 | 0.00 | 51 | 1009.6 |
| 20260902031505 | 65 | 191 | 0.0 | 12.0 | 0.00 | 0.00 | 0.00 | 51 | 1009.7 |
| 20260902031005 | 65 | 262 | 2.0 | 12.0 | 0.00 | 0.00 | 0.00 | 51 | 1009.8 |
| 20260902030504 | 65 | 355 | 0.0 | 8.0 | 0.00 | 0.00 | 0.00 | 52 | 1009.8 |
| 20260902030004 | 65 | 343 | 1.0 | 13.0 | 0.00 | 0.00 | 0.00 | 51 | 1009.8 |
| 20260902025504 | 65 | 269 | 5.0 | 13.0 | 0.00 | 0.00 | 0.00 | 51 | 1009.8 |
| 20260902025004 | 65 | 249 | 0.0 | 6.0 | 0.00 | 0.00 | 0.00 | 52 | 1009.7 |
| 20260902024504 | 65 | 225 | 0.0 | 6.0 | 0.00 | 0.00 | 0.00 | 51 | 1009.8 |
| 20260902024003 | 65 | 207 | 0.0 | 9.0 | 0.00 | 0.00 | 0.00 | 52 | 1009.8 |
| 20260902023505 | 65 | 347 | 1.0 | 9.0 | 0.00 | 0.00 | 0.00 | 52 | 1009.6 |
| 20260902023003 | 65 | 256 | 0.0 | 6.0 | 0.00 | 0.00 | 0.00 | 52 | 1009.4 |
| 20260902022503 | 66 | 191 | 1.0 | 6.0 | 0.00 | 0.00 | 0.00 | 52 | 1009.4 |
| 20260902022002 | 66 | 260 | 2.0 | 7.0 | 0.00 | 0.00 | 0.00 | 51 | 1009.4 |
| 20260902021507 | 66 | 191 | 3.0 | 15.0 | 0.00 | 0.00 | 0.00 | 51 | 1009.4 |
| 20260902021003 | 66 | 25 | 1.0 | 16.0 | 0.00 | 0.00 | 0.00 | 50 | 1009.4 |
| 20260902020502 | 66 | 25 | 2.0 | 12.0 | 0.00 | 0.00 | 0.00 | 51 | 1009.4 |
| 20260902020002 | 66 | 269 | 0.0 | 9.0 | 0.00 | 0.00 | 0.00 | 52 | 1009.3 |
| 20260902015502 | 66 | 267 | 1.0 | 6.0 | 0.00 | 0.00 | 0.00 | 51 | 1009.4 |
| 20260902015003 | 67 | 256 | 1.0 | 7.0 | 0.00 | 0.00 | 0.00 | 51 | 1009.4 |
| 20260902014505 | 67 | 191 | 0.0 | 9.0 | 0.00 | 0.00 | 0.00 | 52 | 1009.4 |
| 20260902014001 | 67 | 310 | 0.0 | 11.0 | 0.00 | 0.00 | 0.00 | 51 | 1009.5 |
| 20260902013502 | 67 | 258 | 3.0 | 11.0 | 0.00 | 0.00 | 0.00 | 50 | 1009.5 |
| 20260902013002 | 67 | 235 | 2.0 | 11.0 | 0.00 | 0.00 | 0.00 | 48 | 1009.4 |
| 20260902012501 | 67 | 353 | 1.0 | 8.0 | 0.00 | 0.00 | 0.00 | 49 | 1009.4 |
| 20260902012001 | 67 | 271 | 2.0 | 8.0 | 0.00 | 0.00 | 0.00 | 48 | 1009.3 |
| 20260902011501 | 68 | 323 | 2.0 | 13.0 | 0.00 | 0.00 | 0.00 | 50 | 1009.1 |
| 20260902011001 | 68 | 273 | 5.0 | 13.0 | 0.00 | 0.00 | 0.00 | 49 | 1009.2 |
| 20260902010502 | 68 | 191 | 2.0 | 10.0 | 0.00 | 0.00 | 0.00 | 49 | 1009.2 |
| 20260902010001 | 68 | 318 | 4.0 | 10.0 | 0.00 | 0.00 | 0.00 | 49 | 1009.1 |
| 20260902005502 | 68 | 260 | 4.0 | 9.0 | 0.00 | 0.00 | 0.00 | 48 | 1009.0 |
| 20260902005001 | 68 | 271 | 2.0 | 12.0 | 0.00 | 0.00 | 0.00 | 48 | 1009.0 |
| 20260902004601 | 68 | 252 | 3.0 | 12.0 | 0.00 | 0.00 | 0.00 | 48 | 1009.0 |
| 20260902004100 | 69 | 259 | 5.0 | 9.0 | 0.00 | 0.00 | 0.00 | 48 | 1009.0 |
| 20260902003600 | 68 | 255 | 4.0 | 15.0 | 0.00 | 0.00 | 0.00 | 49 | 1008.9 |
| 20260902003100 | 68 | 276 | 3.0 | 15.0 | 0.00 | 0.00 | 0.00 | 48 | 1008.9 |
| 20260902002559 | 69 | 277 | 7.0 | 15.0 | 0.00 | 0.00 | 0.00 | 47 | 1008.8 |
| 20260902002059 | 69 | 191 | 1.0 | 12.0 | 0.00 | 0.00 | 0.00 | 47 | 1008.9 |
| 20260902001600 | 70 | 252 | 3.0 | 12.0 | 0.00 | 0.00 | 0.00 | 46 | 1008.9 |
| 20260902001102 | 71 | 352 | 2.0 | 8.0 | 0.00 | 0.00 | 0.00 | 45 | 1008.8 |
| 20260902000559 | 69 | 261 | 2.0 | 8.0 | 0.00 | 0.00 | 0.00 | 46 | 1008.8 |
| 20260902000059 | 70 | 237 | 2.0 | 6.0 | 0.00 | 0.00 | 0.00 | 46 | 1009.0 |
| 20260901235603 | 69 | 264 | 0.0 | 9.0 | 0.00 | 0.00 | 0.00 | 47 | 1009.0 |
| 20260901235100 | 69 | 241 | 2.0 | 10.0 | 0.00 | 0.00 | 0.00 | 47 | 1009.0 |
| 20260901235002 | 69 | 272 | 3.0 | 10.0 | 0.00 | 0.00 | 0.00 | 45 | 1009.0 |
| 20260901234608 | 69 | 348 | 5.0 | 10.0 | 0.00 | 0.00 | 0.00 | 46 | 1009.1 |
| 20260901234058 | 69 | 274 | 0.0 | 12.0 | 0.00 | 0.00 | 0.00 | 46 | 1009.1 |
| 20260901233559 | 69 | 301 | 4.0 | 12.0 | 0.00 | 0.00 | 0.00 | 46 | 1009.1 |
| 20260901233108 | 70 | 256 | 3.0 | 17.0 | 0.00 | 0.00 | 0.00 | 46 | 1009.0 |
| 20260901232601 | 69 | 267 | 7.0 | 17.0 | 0.00 | 0.00 | 0.00 | 47 | 1008.9 |
| 20260901232058 | 69 | 275 | 5.0 | 14.0 | 0.00 | 0.00 | 0.00 | 50 | 1008.9 |
| 20260901231600 | 69 | 282 | 7.0 | 15.0 | 0.00 | 0.00 | 0.00 | 48 | 1009.0 |
| 20260901231057 | 70 | 268 | 5.0 | 14.0 | 0.00 | 0.00 | 0.00 | 48 | 1009.0 |
| 20260901230558 | 68 | 228 | 1.0 | 11.0 | 0.00 | 0.00 | 0.00 | 50 | 1009.0 |
| 20260901230058 | 69 | 237 | 4.0 | 11.0 | 0.00 | 0.00 | 0.00 | 50 | 1009.0 |
| 20260901225557 | 69 | 27 | 2.0 | 8.0 | 0.00 | 0.00 | 0.00 | 48 | 1009.0 |
| 20260901225058 | 69 | 325 | 1.0 | 13.0 | 0.00 | 0.00 | 0.00 | 48 | 1009.0 |
| 20260901224558 | 71 | 269 | 2.0 | 13.0 | 0.00 | 0.00 | 0.00 | 46 | 1008.9 |
| 20260901224056 | 72 | 245 | 3.0 | 10.0 | 0.00 | 0.00 | 0.00 | 47 | 1008.9 |
| 20260901223556 | 71 | 191 | 3.0 | 10.0 | 0.00 | 0.00 | 0.00 | 44 | 1009.0 |
| 20260901223056 | 72 | 191 | 2.0 | 12.0 | 0.00 | 0.00 | 0.00 | 43 | 1008.9 |
| 20260901222555 | 71 | 358 | 2.0 | 12.0 | 0.00 | 0.00 | 0.00 | 44 | 1008.9 |
| 20260901222057 | 71 | 259 | 3.0 | 19.0 | 0.00 | 0.00 | 0.00 | 45 | 1009.0 |
| 20260901221618 | 72 | 239 | 11.0 | 19.0 | 0.00 | 0.00 | 0.00 | 43 | 1008.7 |
| 20260901221055 | 73 | 240 | 6.0 | 19.0 | 0.00 | 0.00 | 0.00 | 41 | 1008.8 |
| 20260901220554 | 73 | 228 | 9.0 | 19.0 | 0.00 | 0.00 | 0.00 | 42 | 1008.6 |
| 20260901220107 | 74 | 262 | 6.0 | 15.0 | 0.00 | 0.00 | 0.00 | 41 | 1008.6 |
| 20260901215555 | 74 | 264 | 8.0 | 19.0 | 0.00 | 0.00 | 0.00 | 41 | 1008.5 |
| 20260901215059 | 75 | 221 | 6.0 | 19.0 | 0.00 | 0.00 | 0.00 | 39 | 1008.7 |
| 20260901214554 | 74 | 277 | 3.0 | 13.0 | 0.00 | 0.00 | 0.00 | 40 | 1008.6 |
| 20260901214053 | 75 | 279 | 4.0 | 14.0 | 0.00 | 0.00 | 0.00 | 40 | 1008.7 |
| 20260901213553 | 74 | 191 | 4.0 | 17.0 | 0.00 | 0.00 | 0.00 | 41 | 1008.7 |
| 20260901213108 | 75 | 325 | 8.0 | 17.0 | 0.00 | 0.00 | 0.00 | 40 | 1008.8 |
| 20260901212553 | 75 | 267 | 9.0 | 17.0 | 0.00 | 0.00 | 0.00 | 40 | 1008.7 |
| 20260901212052 | 75 | 257 | 9.0 | 17.0 | 0.00 | 0.00 | 0.00 | 42 | 1008.6 |
| 20260901211554 | 74 | 256 | 7.0 | 17.0 | 0.00 | 0.00 | 0.00 | 43 | 1008.5 |
| 20260901211053 | 75 | 240 | 9.0 | 23.0 | 0.00 | 0.00 | 0.00 | 40 | 1008.7 |
| 20260901210551 | 74 | 259 | 7.0 | 23.0 | 0.00 | 0.00 | 0.00 | 44 | 1008.8 |
| 20260901210050 | 73 | 251 | 11.0 | 19.0 | 0.00 | 0.00 | 0.00 | 42 | 1008.6 |
| 20260901205553 | 73 | 262 | 8.0 | 21.0 | 0.00 | 0.00 | 0.00 | 44 | 1008.8 |
| 20260901205053 | 73 | 191 | 5.0 | 17.0 | 0.00 | 0.00 | 0.00 | 44 | 1008.8 |
| 20260901204549 | 73 | 191 | 5.0 | 18.0 | 0.00 | 0.00 | 0.00 | 44 | 1008.7 |
| 20260901204051 | 72 | 191 | 6.0 | 18.0 | 0.00 | 0.00 | 0.00 | 45 | 1008.7 |
| 20260901203548 | 72 | 223 | 4.0 | 13.0 | 0.00 | 0.00 | 0.00 | 45 | 1008.8 |
| 20260901203059 | 73 | 258 | 3.0 | 22.0 | 0.00 | 0.00 | 0.00 | 45 | 1008.9 |
| 20260901202548 | 72 | 257 | 9.0 | 25.0 | 0.00 | 0.00 | 0.00 | 44 | 1008.8 |
| 20260901202048 | 72 | 191 | 9.0 | 25.0 | 0.00 | 0.00 | 0.00 | 45 | 1008.9 |
| 20260901201547 | 72 | 258 | 11.0 | 22.0 | 0.00 | 0.00 | 0.00 | 44 | 1008.8 |
| 20260901201047 | 72 | 258 | 7.0 | 22.0 | 0.00 | 0.00 | 0.00 | 44 | 1008.8 |
| 20260901200546 | 71 | 249 | 6.0 | 22.0 | 0.00 | 0.00 | 0.00 | 44 | 1009.0 |
| 20260901200052 | 71 | 245 | 6.0 | 23.0 | 0.00 | 0.00 | 0.00 | 45 | 1008.9 |
| 20260901195549 | 71 | 191 | 14.0 | 23.0 | 0.00 | 0.00 | 0.00 | 45 | 1008.9 |
| 20260901195045 | 71 | 227 | 9.0 | 18.0 | 0.00 | 0.00 | 0.00 | 45 | 1008.9 |
| 20260901194545 | 72 | 250 | 8.0 | 21.0 | 0.00 | 0.00 | 0.00 | 44 | 1009.0 |
| 20260901194044 | 72 | 244 | 4.0 | 21.0 | 0.00 | 0.00 | 0.00 | 44 | 1009.0 |
| 20260901193544 | 72 | 243 | 8.0 | 22.0 | 0.00 | 0.00 | 0.00 | 45 | 1009.1 |
| 20260901193057 | 71 | 254 | 12.0 | 24.0 | 0.00 | 0.00 | 0.00 | 46 | 1009.3 |
| 20260901192546 | 72 | 280 | 13.0 | 24.0 | 0.00 | 0.00 | 0.00 | 45 | 1009.2 |
| 20260901192043 | 71 | 267 | 15.0 | 24.0 | 0.00 | 0.00 | 0.00 | 46 | 1009.4 |
| 20260901191541 | 71 | 262 | 13.0 | 25.0 | 0.00 | 0.00 | 0.00 | 45 | 1009.5 |
| 20260901191040 | 72 | 269 | 14.0 | 23.0 | 0.00 | 0.00 | 0.00 | 46 | 1009.6 |
| 20260901190541 | 71 | 277 | 15.0 | 24.0 | 0.00 | 0.00 | 0.00 | 47 | 1009.5 |
| 20260901190036 | 71 | 275 | 14.0 | 24.0 | 0.00 | 0.00 | 0.00 | 47 | 1009.5 |
| 20260901185537 | 70 | 261 | 13.0 | 25.0 | 0.00 | 0.00 | 0.00 | 47 | 1009.5 |
| 20260901185037 | 70 | 250 | 13.0 | 25.0 | 0.00 | 0.00 | 0.00 | 46 | 1009.6 |
| 20260901184538 | 70 | 191 | 13.0 | 22.0 | 0.00 | 0.00 | 0.00 | 49 | 1009.6 |
| 20260901184032 | 70 | 256 | 13.0 | 23.0 | 0.00 | 0.00 | 0.00 | 48 | 1009.6 |
| 20260901183531 | 69 | 247 | 14.0 | 25.0 | 0.00 | 0.00 | 0.00 | 48 | 1009.6 |
| 20260901183032 | 69 | 247 | 14.0 | 25.0 | 0.00 | 0.00 | 0.00 | 48 | 1009.6 |
| 20260901182532 | 69 | 242 | 11.0 | 25.0 | 0.00 | 0.00 | 0.00 | 49 | 1009.8 |
| 20260901182031 | 69 | 271 | 12.0 | 22.0 | 0.00 | 0.00 | 0.00 | 49 | 1009.9 |
| 20260901181531 | 69 | 231 | 13.0 | 24.0 | 0.00 | 0.00 | 0.00 | 49 | 1009.8 |
| 20260901181030 | 69 | 268 | 14.0 | 23.0 | 0.00 | 0.00 | 0.00 | 49 | 1009.8 |
| 20260901180529 | 69 | 216 | 10.0 | 22.0 | 0.00 | 0.00 | 0.00 | 49 | 1009.9 |
| 20260901180028 | 69 | 250 | 12.0 | 20.0 | 0.00 | 0.00 | 0.00 | 51 | 1010.0 |
| 20260901175527 | 68 | 255 | 11.0 | 20.0 | 0.00 | 0.00 | 0.00 | 52 | 1010.0 |
| 20260901175025 | 67 | 244 | 12.0 | 21.0 | 0.00 | 0.00 | 0.00 | 54 | 1010.0 |
| 20260901174526 | 67 | 266 | 11.0 | 19.0 | 0.00 | 0.00 | 0.00 | 52 | 1010.0 |
| 20260901174027 | 67 | 234 | 12.0 | 19.0 | 0.00 | 0.00 | 0.00 | 51 | 1009.9 |
| 20260901173523 | 67 | 265 | 9.0 | 19.0 | 0.00 | 0.00 | 0.00 | 53 | 1009.9 |
| 20260901173022 | 66 | 247 | 9.0 | 23.0 | 0.00 | 0.00 | 0.00 | 53 | 1010.0 |
| 20260901172522 | 67 | 226 | 13.0 | 19.0 | 0.00 | 0.00 | 0.00 | 52 | 1009.9 |
| 20260901172025 | 67 | 277 | 8.0 | 16.0 | 0.00 | 0.00 | 0.00 | 53 | 1009.9 |
| 20260901171524 | 66 | 275 | 9.0 | 16.0 | 0.00 | 0.00 | 0.00 | 54 | 1009.9 |
| 20260901171019 | 65 | 240 | 10.0 | 21.0 | 0.00 | 0.00 | 0.00 | 57 | 1009.9 |
| 20260901170518 | 64 | 242 | 9.0 | 21.0 | 0.00 | 0.00 | 0.00 | 57 | 1009.9 |
| 20260901170017 | 64 | 272 | 11.0 | 21.0 | 0.00 | 0.00 | 0.00 | 58 | 1009.9 |
| 20260901165516 | 64 | 251 | 9.0 | 19.0 | 0.00 | 0.00 | 0.00 | 58 | 1009.9 |
| 20260901165020 | 63 | 191 | 6.0 | 19.0 | 0.00 | 0.00 | 0.00 | 60 | 1010.0 |
| 20260901164515 | 63 | 263 | 11.0 | 18.0 | 0.00 | 0.00 | 0.00 | 60 | 1010.0 |
| 20260901164015 | 63 | 240 | 8.0 | 17.0 | 0.00 | 0.00 | 0.00 | 59 | 1009.8 |
| 20260901163515 | 63 | 260 | 7.0 | 18.0 | 0.00 | 0.00 | 0.00 | 61 | 1010.0 |
| 20260901163014 | 63 | 255 | 7.0 | 17.0 | 0.00 | 0.00 | 0.00 | 61 | 1010.0 |
| 20260901162512 | 62 | 191 | 7.0 | 17.0 | 0.00 | 0.00 | 0.00 | 63 | 1009.9 |
| 20260901162013 | 62 | 191 | 8.0 | 19.0 | 0.00 | 0.00 | 0.00 | 62 | 1009.9 |
| 20260901161512 | 62 | 251 | 7.0 | 19.0 | 0.00 | 0.00 | 0.00 | 62 | 1010.0 |
| 20260901161012 | 62 | 244 | 9.0 | 18.0 | 0.00 | 0.00 | 0.00 | 63 | 1010.0 |
| 20260901160510 | 62 | 191 | 8.0 | 17.0 | 0.00 | 0.00 | 0.00 | 62 | 1009.9 |
| 20260901160010 | 62 | 191 | 10.0 | 17.0 | 0.00 | 0.00 | 0.00 | 64 | 1009.9 |
| 20260901155509 | 62 | 254 | 6.0 | 18.0 | 0.00 | 0.00 | 0.00 | 63 | 1009.9 |
| 20260901155009 | 62 | 275 | 12.0 | 21.0 | 0.00 | 0.00 | 0.00 | 63 | 1009.7 |
| 20260901154515 | 62 | 275 | 12.0 | 21.0 | 0.00 | 0.00 | 0.00 | 63 | 1009.7 |
| 20260901154007 | 62 | 249 | 9.0 | 18.0 | 0.00 | 0.00 | 0.00 | 63 | 1009.8 |
| 20260901153507 | 61 | 268 | 8.0 | 18.0 | 0.00 | 0.00 | 0.00 | 63 | 1009.8 |
| 20260901153010 | 61 | 243 | 7.0 | 18.0 | 0.00 | 0.00 | 0.00 | 64 | 1009.8 |
| 20260901152504 | 61 | 279 | 6.0 | 19.0 | 0.00 | 0.00 | 0.00 | 64 | 1009.7 |
| 20260901152003 | 61 | 191 | 9.0 | 17.0 | 0.00 | 0.00 | 0.00 | 64 | 1009.7 |
| 20260901151503 | 60 | 244 | 10.0 | 19.0 | 0.00 | 0.00 | 0.00 | 65 | 1009.7 |
| 20260901151002 | 60 | 253 | 10.0 | 20.0 | 0.00 | 0.00 | 0.00 | 66 | 1009.8 |
| 20260901150500 | 60 | 233 | 10.0 | 18.0 | 0.00 | 0.00 | 0.00 | 65 | 1009.7 |
| 20260901150101 | 60 | 256 | 10.0 | 22.0 | 0.00 | 0.00 | 0.00 | 66 | 1009.7 |
| 20260901145600 | 60 | 235 | 11.0 | 22.0 | 0.00 | 0.00 | 0.00 | 65 | 1009.6 |
| 20260901145058 | 60 | 241 | 8.0 | 21.0 | 0.00 | 0.00 | 0.00 | 65 | 1009.5 |
| 20260901144557 | 60 | 227 | 9.0 | 21.0 | 0.00 | 0.00 | 0.00 | 65 | 1009.5 |
| 20260901144056 | 60 | 266 | 9.0 | 16.0 | 0.00 | 0.00 | 0.00 | 66 | 1009.4 |
| 20260901143555 | 60 | 257 | 9.0 | 19.0 | 0.00 | 0.00 | 0.00 | 66 | 1009.5 |
| 20260901143055 | 60 | 252 | 9.0 | 21.0 | 0.00 | 0.00 | 0.00 | 65 | 1009.4 |
| 20260901142552 | 60 | 252 | 10.0 | 21.0 | 0.00 | 0.00 | 0.00 | 65 | 1009.5 |
| 20260901142052 | 61 | 232 | 10.0 | 22.0 | 0.00 | 0.00 | 0.00 | 65 | 1009.4 |
| 20260901141558 | 61 | 228 | 9.0 | 16.0 | 0.00 | 0.00 | 0.00 | 65 | 1009.4 |
| 20260901141051 | 61 | 259 | 11.0 | 18.0 | 0.00 | 0.00 | 0.00 | 65 | 1009.4 |
| 20260901140549 | 61 | 247 | 10.0 | 18.0 | 0.00 | 0.00 | 0.00 | 65 | 1009.3 |
| 20260901140051 | 61 | 258 | 8.0 | 16.0 | 0.00 | 0.00 | 0.00 | 65 | 1009.1 |
| 20260901135552 | 61 | 265 | 6.0 | 15.0 | 0.00 | 0.00 | 0.00 | 65 | 1009.1 |
| 20260901135048 | 61 | 236 | 6.0 | 9.0 | 0.00 | 0.00 | 0.00 | 64 | 1009.0 |
| 20260901134547 | 61 | 265 | 1.0 | 11.0 | 0.00 | 0.00 | 0.00 | 64 | 1009.0 |
| 20260901134047 | 61 | 242 | 3.0 | 11.0 | 0.00 | 0.00 | 0.00 | 63 | 1009.0 |
| 20260901133548 | 61 | 253 | 0.0 | 8.0 | 0.00 | 0.00 | 0.00 | 64 | 1009.0 |
| 20260901133045 | 61 | 253 | 0.0 | 8.0 | 0.00 | 0.00 | 0.00 | 63 | 1009.0 |
| 20260901132544 | 61 | 240 | 4.0 | 10.0 | 0.00 | 0.00 | 0.00 | 63 | 1008.9 |
| 20260901132044 | 61 | 261 | 5.0 | 10.0 | 0.00 | 0.00 | 0.00 | 62 | 1008.7 |
| 20260901131549 | 61 | 279 | 1.0 | 7.0 | 0.00 | 0.00 | 0.00 | 62 | 1008.8 |
| 20260901131043 | 61 | 242 | 3.0 | 7.0 | 0.00 | 0.00 | 0.00 | 61 | 1008.7 |
| 20260901130543 | 62 | 235 | 0.0 | 5.0 | 0.00 | 0.00 | 0.00 | 60 | 1008.6 |
| 20260901130041 | 62 | 320 | 0.0 | 4.0 | 0.00 | 0.00 | 0.00 | 60 | 1008.6 |
| 20260901125544 | 62 | 233 | 0.0 | 11.0 | 0.00 | 0.00 | 0.00 | 61 | 1008.5 |
| 20260901125041 | 62 | 279 | 3.0 | 11.0 | 0.00 | 0.00 | 0.00 | 61 | 1008.5 |
| 20260901124541 | 62 | 227 | 1.0 | 7.0 | 0.00 | 0.00 | 0.00 | 60 | 1008.4 |
| 20260901124040 | 61 | 246 | 1.0 | 3.0 | 0.00 | 0.00 | 0.00 | 61 | 1008.4 |
| 20260901123540 | 61 | 233 | 0.0 | 7.0 | 0.00 | 0.00 | 0.00 | 61 | 1008.3 |
| 20260901123044 | 61 | 247 | 1.0 | 7.0 | 0.00 | 0.00 | 0.00 | 62 | 1008.4 |
| 20260901122540 | 61 | 191 | 0.0 | 9.0 | 0.00 | 0.00 | 0.00 | 61 | 1008.3 |
| 20260901122039 | 61 | 191 | 0.0 | 9.0 | 0.00 | 0.00 | 0.00 | 62 | 1008.3 |
| 20260901121543 | 60 | 256 | 0.0 | 3.0 | 0.00 | 0.00 | 0.00 | 63 | 1008.4 |
| 20260901121040 | 61 | 39 | 0.0 | 3.0 | 0.00 | 0.00 | 0.00 | 63 | 1008.4 |
| 20260901120540 | 60 | 41 | 0.0 | 3.0 | 0.00 | 0.00 | 0.00 | 63 | 1008.4 |
| 20260901120044 | 61 | 270 | 0.0 | 3.0 | 0.00 | 0.00 | 0.00 | 62 | 1008.5 |
| 20260901115538 | 62 | 270 | 0.0 | 8.0 | 0.00 | 0.00 | 0.00 | 60 | 1008.4 |
| 20260901115039 | 63 | 239 | 3.0 | 8.0 | 0.00 | 0.00 | 0.00 | 60 | 1008.3 |
| 20260901114542 | 62 | 252 | 1.0 | 8.0 | 0.00 | 0.00 | 0.00 | 63 | 1008.3 |
| 20260901114038 | 61 | 237 | 2.0 | 11.0 | 0.00 | 0.00 | 0.00 | 64 | 1008.2 |
| 20260901113539 | 61 | 273 | 2.0 | 11.0 | 0.00 | 0.00 | 0.00 | 63 | 1008.3 |
| 20260901113037 | 61 | 331 | 4.0 | 13.0 | 0.00 | 0.00 | 0.00 | 63 | 1008.2 |
| 20260901112536 | 60 | 215 | 2.0 | 13.0 | 0.00 | 0.00 | 0.00 | 61 | 1008.3 |
| 20260901112038 | 61 | 327 | 1.0 | 14.0 | 0.00 | 0.00 | 0.00 | 60 | 1008.3 |
| 20260901111538 | 61 | 335 | 3.0 | 14.0 | 0.00 | 0.00 | 0.00 | 62 | 1008.2 |
| 20260901111036 | 61 | 260 | 4.0 | 12.0 | 0.00 | 0.00 | 0.00 | 60 | 1008.2 |
| 20260901110535 | 62 | 312 | 1.0 | 11.0 | 0.00 | 0.00 | 0.00 | 58 | 1008.2 |
| 20260901110036 | 62 | 191 | 1.0 | 12.0 | 0.00 | 0.00 | 0.00 | 56 | 1008.2 |
| 20260901105536 | 62 | 239 | 4.0 | 12.0 | 0.00 | 0.00 | 0.00 | 61 | 1008.2 |
| 20260901105038 | 62 | 191 | 3.0 | 16.0 | 0.00 | 0.00 | 0.00 | 60 | 1008.2 |
| 20260901104534 | 63 | 191 | 4.0 | 16.0 | 0.00 | 0.00 | 0.00 | 59 | 1008.2 |
| 20260901104035 | 62 | 262 | 4.0 | 9.0 | 0.00 | 0.00 | 0.00 | 61 | 1008.2 |
| 20260901103533 | 62 | 109 | 2.0 | 16.0 | 0.00 | 0.00 | 0.00 | 59 | 1008.2 |
| 20260901103033 | 61 | 262 | 2.0 | 16.0 | 0.00 | 0.00 | 0.00 | 61 | 1008.1 |
| 20260901102534 | 61 | 39 | 1.0 | 17.0 | 0.00 | 0.00 | 0.00 | 54 | 1008.2 |
| 20260901102034 | 62 | 359 | 2.0 | 17.0 | 0.00 | 0.00 | 0.00 | 57 | 1008.2 |
| 20260901101533 | 62 | 352 | 3.0 | 12.0 | 0.00 | 0.00 | 0.00 | 53 | 1008.1 |
| 20260901101033 | 62 | 349 | 1.0 | 14.0 | 0.00 | 0.00 | 0.00 | 55 | 1008.2 |
| 20260901100531 | 62 | 344 | 3.0 | 14.0 | 0.00 | 0.00 | 0.00 | 57 | 1008.1 |
| 20260901100029 | 60 | 248 | 0.0 | 10.0 | 0.00 | 0.00 | 0.00 | 53 | 1008.2 |
| 20260901095529 | 60 | 2 | 0.0 | 7.0 | 0.00 | 0.00 | 0.00 | 51 | 1008.1 |
| 20260901095029 | 60 | 191 | 2.0 | 9.0 | 0.00 | 0.00 | 0.00 | 58 | 1008.0 |
| 20260901094529 | 60 | 355 | 1.0 | 10.0 | 0.00 | 0.00 | 0.00 | 53 | 1008.0 |
| 20260901094029 | 60 | 341 | 1.0 | 10.0 | 0.00 | 0.00 | 0.00 | 52 | 1008.1 |
| 20260901093532 | 60 | 359 | 4.0 | 8.0 | 0.00 | 0.00 | 0.00 | 50 | 1008.1 |
| 20260901093030 | 59 | 313 | 3.0 | 8.0 | 0.00 | 0.00 | 0.00 | 50 | 1008.0 |
| 20260901092528 | 60 | 16 | 1.0 | 12.0 | 0.00 | 0.00 | 0.00 | 49 | 1008.0 |
| 20260901092028 | 60 | 52 | 3.0 | 13.0 | 0.00 | 0.00 | 0.00 | 49 | 1008.0 |
| 20260901091526 | 59 | 355 | 4.0 | 13.0 | 0.00 | 0.00 | 0.00 | 53 | 1008.0 |
| 20260901091025 | 58 | 6 | 0.0 | 4.0 | 0.00 | 0.00 | 0.00 | 51 | 1007.9 |
| 20260901090525 | 59 | 26 | 1.0 | 10.0 | 0.00 | 0.00 | 0.00 | 50 | 1007.8 |
| 20260901090025 | 60 | 49 | 4.0 | 10.0 | 0.00 | 0.00 | 0.00 | 49 | 1007.8 |
| 20260901085525 | 61 | 33 | 0.0 | 7.0 | 0.00 | 0.00 | 0.00 | 47 | 1007.8 |
| 20260901085024 | 61 | 11 | 4.0 | 7.0 | 0.00 | 0.00 | 0.00 | 48 | 1008.0 |
| 20260901084524 | 60 | 348 | 1.0 | 6.0 | 0.00 | 0.00 | 0.00 | 49 | 1007.9 |
| 20260901084024 | 60 | 28 | 0.0 | 9.0 | 0.00 | 0.00 | 0.00 | 48 | 1008.0 |